Pagina principale
METAR-TAF:

METAR-TAF

Aeroporti :

Aeroporto di Salerno-Costa d'Amalfi

Salerno, Italia

latitudine: 40-37N, longitudine: 014-55E, altezza: 40 m

Osservazione

Il bollettino è stato emesso 38 minuti fa, alle 15:50 UTC
Vento 4 kt da est/nord-est
Temperature 11°C
Umidità 87%
Pressione 1020 hPa
Visibilità 10 km o più
Nubi sparse ad un'altezza di 3000 ft

METAR: LIRI 201550Z 06004KT 9999 SCT030 11/09 Q1020

Ora: 17:28 (16:28 UTC)


TAF: mancante

Osservazioni e previsioni meteorologiche di più di 4000 aeroporti (messaggi METAR e TAF).

Le stazioni disponibili sono rappresentate dai dischi gialli e rossi sulla carta.

Puntare il mouse per vedere il nome della stazione.

Clicca sopra per visualizzare le osservazioni e previsioni meteorologiche.

Per cambiare la mappa : fare clic sui pulsanti verdi con una croce nera per ingrandire, il pulsante verde con un trattino per diminuire, o sulla freccia verde per le mappe adiacenti.


METAR-TAF: